Regional Weather Roundup
Issued by NWS

Home | Current Version | Previous Version | Graphics & Text | Print | Product List | Glossary On
Versions: 1 2 3 4 5 6 7 8 9 10 11 12 13 14 15 16 17 18 19 20 21 22 23 24 25 26 27 28 29 30 31 32 33 34 35 36 37 38 39 40 41 42 43 44 45 46 47 48 49 50
305
ASUS45 KBOU 221107
RWRCO

WEATHER ROUNDUP FOR COLORADO
NATIONAL WEATHER SERVICE DENVER/BOULDER CO
500 AM MDT TUE AUG 22 2017

NOTE: "FAIR" INDICATES FEW OR NO CLOUDS BELOW 12000 FEET WITH NO
SIGNIFICANT WEATHER AND/OR OBSTRUCTIONS TO VISIBILITY.

COZ001>005-013-030-031-221200-
...NORTHWEST COLORADO...

CITY           SKY/WX    TMP DP  RH WIND       PRES   REMARKS
CRAIG          FAIR      44  35  70 CALM      30.32S
HAYDEN         FAIR      53  35  50 CALM      30.35R
MEEKER         FAIR      52  36  54 E7        30.34R
RABBIT EARS PA FAIR      50  36  57 S6        30.61S
STEAMBOAT SPGS FAIR      47  37  67 CALM      30.37R
WALDEN         FAIR      37  32  81 SE8       30.46S
$$

COZ006>008-011-221200-
...WEST CENTRAL VALLEYS...

CITY           SKY/WX    TMP DP  RH WIND       PRES   REMARKS
GRAND JUNCTION FAIR      68  44  42 E14       30.20S
MONTROSE       FAIR      60  44  55 S8        30.31S
EAGLE          FAIR      51  39  63 E3        30.40R
RIFLE          FAIR      57  40  52 E5        30.28R
DELTA          FAIR      62  44  51 CALM      30.28R
NUCLA          FAIR      63  37  39 E7        30.34S
$$

COZ017>023-064>068-221200-
...SOUTHWEST COLORADO...

CITY           SKY/WX    TMP DP  RH WIND       PRES   REMARKS
DURANGO        FAIR      53  45  74 CALM      30.34F
CORTEZ         FAIR      56  54  93 NE8       30.31S
PAGOSA SPRINGS FAIR      52  44  75 CALM      30.42R
TELLURIDE      FAIR      55  40  58 SE5       30.53S
WOLF CREEK PAS CLOUDY    41  36  81 N6        30.74S
$$

COZ009-010-012-014-032>034-037-058>063-221200-
...CENTRAL COLORADO...

CITY           SKY/WX    TMP DP  RH WIND       PRES   REMARKS
ASPEN          FAIR      50  39  66 S5        30.43R
BUENA VISTA    FAIR      46  41  83 NW5       30.49F
COPPER MTN     FAIR      50  32  50 S13       30.72F
BERTHOUD PASS  FAIR      41  36  81 W9        30.75S
COTTONWOOD PAS FAIR      55  34  44 SW9       30.59S
GUNNISON       FAIR      47  42  83 CALM      30.48S
KREMMLING      FAIR      45  39  81 CALM      30.45R
LEADVILLE      FAIR      38  34  85 NE5       30.59S
SALIDA         FAIR      51  46  80 NW6       30.54S
SUNLIGHT       FAIR      48  32  53 S7        30.65S
WILKERSON PASS FAIR      46  34  61 W3        30.71R
$$

COZ069>075-221200-
...SAN LUIS VALLEY/SANGRE DE CRISTO MOUNTAINS...

CITY           SKY/WX    TMP DP  RH WIND       PRES   REMARKS
ALAMOSA        MOCLDY    50  46  86 NE5       30.43R
DEL NORTE      FAIR      51  46  82 W10       30.46S
LA VETA PASS   NOT AVBL
SAGUACHE         N/A     50  45  81 N8        30.46S
$$

COZ035-036-038>040-221200-
...NORTHERN COLORADO FRONT RANGE...

CITY           SKY/WX    TMP DP  RH WIND       PRES   REMARKS
DENVER INTL AP FAIR      57  53  86 SE10      30.31F
DMNS CITY PARK   N/A     60  52  75 E9        30.31S
AURORA         NOT AVBL
FRONT RANGE AP FAIR      59  55  88 SE12      30.33S
ERIE MUNI ARPT FAIR      59  50  72 CALM      30.37S
BOULDER MUN AP FAIR      59  50  72 W3        30.32S
CENTENNIAL     FAIR      57  49  74 SW3       30.34S
BROOMFIELD     FAIR      59  48  67 NW8       30.34S
FORT COLLINS   CLOUDY    63  51  65 CALM      30.31F
LONGMONT       FAIR      56  49  77 CALM      30.33S
$$

COZ041-046-047-076>085-087-088-221200-
...PIKES PEAK/PALMER DIVIDE AND SOUTHERN FOOTHILLS...

CITY           SKY/WX    TMP DP  RH WIND       PRES   REMARKS
COLO. SPRINGS  FAIR      59  56  89 NE7       30.37R
A. F. ACADEMY  NOT AVBL
SCHRIEVER AFB  NOT AVBL
CHEYENNE MTN   NOT AVBL
ELLICOTT       FAIR     N/A N/A N/A E8        30.35S
FALCON         MOCLDY    56  56  99 NW7       30.40S
FORT CARSON    MOCLDY    57  50  78 N3        30.35R
LIMON          CLOUDY    59  58  96 E7        30.33S
MONUMENT HILL  FOG       52  52 100 S3        30.42S VSB 1/4
CANON CITY     MOCLDY    63  52  67 W9        30.31S
WALSENBURG     FAIR      59  52  77 NW5       30.36R
TRINIDAD       FAIR      58  52  80 W8        30.33R
$$

COZ042>045-048>051-090-091-221200-
...NORTHEAST COLORADO...

CITY           SKY/WX    TMP DP  RH WIND       PRES   REMARKS
GREELEY ARPT   MOCLDY    55  51  86 N3        30.31S
AKRON          FOG       57  56  96 E10       30.29R VSB 1/4
BURLINGTON     FAIR      61  59  93 NE6       30.25R
WRAY           NOT AVBL
YUMA           CLOUDY    57  48  72 E6        30.27  HAZE
STERLING       FAIR      54  54 100 N6        30.26S
HOLYOKE        FAIR      59  55  88 N8        30.26R
FORT MORGAN    CLOUDY    60  55  83 CALM      30.31R
$$

COZ086-089-092>099-221200-
...SOUTHEAST COLORADO...

CITY           SKY/WX    TMP DP  RH WIND       PRES   REMARKS
PUEBLO         CLOUDY    65  55  70 W6        30.28R
LA JUNTA       CLOUDY    69  63  81 E9        30.24R
LAMAR          CLOUDY    69  63  81 NE10      30.20R
SPRINGFIELD      N/A     66  66 100 N13       30.21R
$$




USA.gov is the U.S. government's official web portal to all federal, state and local government web resources and services.